Location: Julian California
(33.0790°N, 116.6010°W)
Time: 23:08:21
(UTC-08:00)

DELTA 2 R/B (1) - Pass Details

Date: 14 June 2018
Orbit: 790 x 803 km, 39.6° (Epoch: 15 November)

Event Time Altitude Azimuth Distance (km) Brightness Sun altitude
Rises 20:28:11 0° 292° (WNW) 3,275 8.9 -6.5°
Reaches altitude 10° 20:30:41 10° 288° (WNW) 2,344 7.5 -6.9°
Maximum altitude 20:36:06 59° 211° (SSW) 906 3.9 -7.9°
Enters shadow 20:41:25 11° 132° (SE) 2,300 5.3 -8.8°
